Weather History for Kirksville, MO

Change the Weather History Date:

Wednesday, January 15, 2014

  Actual Average Record
Temperature  
Mean Temperature 21 °F 26 °F  
Max Temperature 30 °F 35 °F 60 °F (1953)
Min Temperature 12 °F 17 °F -19 °F (1927)
Degree Days  
Heating Degree Days 44 39  
Month to date heating degree days 494 585  
Since 1 July heating degree days 2985 2928  
Cooling Degree Days 0 0  
Month to date cooling degree days 0 0  
Year to date cooling degree days 0 0  
Moisture  
Dew Point 9 °F    
Average Humidity 61    
Maximum Humidity 76    
Minimum Humidity 46    
Precipitation  
Precipitation T in 0.04 in 0.75 in (1949)
Month to date precipitation 0.68 0.46  
Year to date precipitation 0.68 0.46  
Sea Level Pressure  
Sea Level Pressure 30.13 in    
Wind  
Wind Speed 10 mph (West)    
Max Wind Speed 22 mph    
Max Gust Speed 31 mph    
Visibility 10 miles    
Events      
T = Trace of Precipitation, MM = Missing Value Source: NWS Daily Summary

Daily Weather History Graph

Daily Weather History Graph

Search for Another Location

Airport:

Trip Planner

Search our weather history database for the weather conditions in past years. The results will help you decide how hot, cold, wet, or windy it might be!

Date:

Astronomy

Jan. 15, 2014 Rise Set
Actual Time 7:30 AM CST 5:09 PM CST
Civil Twilight 7:00 AM CST 5:39 PM CST
Nautical Twilight 6:27 AM CST 6:12 PM CST
Astronomical Twilight 5:54 AM CST 6:44 PM CST
Moon 5:07 PM CST (1/15) 6:46 AM CST (1/15)
Length of Visible Light 10h 38m
Length of Day
9h 38m
Full, 100% of the Moon is Illuminated
Jan 15
Full
Jan 15
Full
Jan 23
Last Quarter
Jan 30
New
Feb 6
First Quarter

Hourly Weather History & Observations

Time (CST) Temp. Windchill Dew Point Humidity Pressure Visibility Wind Dir Wind Speed Gust Speed Precip Events Conditions
12:55 AM 21.0 °F 5.7 °F 9.0 °F 60% 30.17 in 10.0 mi NW 19.6 mph 29.9 mph N/A   Partly Cloudy
1:55 AM 19.0 °F 5.0 °F 8.1 °F 62% 30.19 in 10.0 mi NNW 15.0 mph 20.7 mph N/A   Clear
2:55 AM 17.1 °F 3.6 °F 7.0 °F 65% 30.21 in 10.0 mi NNW 12.7 mph - N/A   Clear
3:55 AM 16.0 °F 3.6 °F 7.0 °F 68% 30.21 in 10.0 mi NW 10.4 mph - N/A   Clear
4:55 AM 15.1 °F 4.2 °F 6.1 °F 68% 30.22 in 10.0 mi NW 8.1 mph - N/A   Clear
5:55 AM 14.0 °F 1.2 °F 6.1 °F 71% 30.23 in 10.0 mi NW 10.4 mph - N/A   Clear
6:55 AM 12.9 °F 1.6 °F 6.1 °F 74% 30.24 in 10.0 mi NNW 8.1 mph - N/A   Clear
7:55 AM 12.9 °F 5.2 °F 6.1 °F 74% 30.24 in 10.0 mi NNW 4.6 mph - N/A   Clear
8:35 AM 15.1 °F 5.2 °F 7.0 °F 70% 30.19 in 10.0 mi NW 6.9 mph - N/A   Mostly Cloudy
8:55 AM 15.1 °F 6.4 °F 7.0 °F 70% 30.25 in 10.0 mi NW 5.8 mph - N/A   Mostly Cloudy
9:55 AM 19.0 °F 9.0 °F 9.0 °F 65% 30.25 in 10.0 mi NNW 8.1 mph - N/A   Overcast
10:55 AM 21.0 °F 10.6 °F 9.0 °F 60% 30.25 in 10.0 mi NW 9.2 mph - N/A   Overcast
11:55 AM 23.0 °F 13.1 °F 9.0 °F 55% 30.21 in 10.0 mi WNW 9.2 mph - N/A   Mostly Cloudy
12:09 PM 24.1 °F 16.0 °F 10.0 °F 55% 30.16 in 10.0 mi Variable 6.9 mph - N/A   Scattered Clouds
12:28 PM 23.0 °F 11.7 °F 9.0 °F 55% 30.14 in 10.0 mi West 11.5 mph - N/A   Mostly Cloudy
12:35 PM 24.1 °F 13.1 °F 10.0 °F 55% 30.14 in 10.0 mi WNW 11.5 mph 17.3 mph N/A   Scattered Clouds
12:55 PM 24.1 °F 15.2 °F 10.0 °F 55% 30.18 in 10.0 mi WSW 8.1 mph - N/A   Clear
1:55 PM 27.0 °F 19.5 °F 10.0 °F 49% 30.14 in 10.0 mi Variable 6.9 mph 16.1 mph N/A   Partly Cloudy
2:55 PM 27.0 °F 20.5 °F 10.9 °F 51% 30.12 in 10.0 mi SW 5.8 mph - N/A   Clear
3:55 PM 27.0 °F 18.0 °F 10.9 °F 51% 30.10 in 10.0 mi SW 9.2 mph - N/A   Clear
4:55 PM 26.1 °F 16.2 °F 10.0 °F 51% 30.09 in 10.0 mi SW 10.4 mph - N/A   Partly Cloudy
5:55 PM 25.0 °F 17.1 °F 10.9 °F 55% 30.06 in 10.0 mi SSW 6.9 mph - N/A   Overcast
6:55 PM 24.1 °F 14.4 °F 12.0 °F 60% 30.02 in 10.0 mi SSW 9.2 mph - N/A   Mostly Cloudy
7:55 PM 26.1 °F 17.6 °F 12.0 °F 55% 30.01 in 10.0 mi South 8.1 mph - N/A   Overcast
8:55 PM 27.0 °F 16.1 °F 10.9 °F 51% 29.96 in 10.0 mi South 12.7 mph - N/A   Overcast
9:55 PM 28.0 °F 17.0 °F 10.9 °F 49% 29.91 in 10.0 mi SSW 13.8 mph - N/A   Overcast
10:55 PM 28.9 °F 18.6 °F 12.0 °F 49% 29.90 in 10.0 mi SW 12.7 mph 20.7 mph N/A   Overcast
11:55 PM 28.9 °F 19.2 °F 12.9 °F 51% 29.86 in 10.0 mi SW 11.5 mph - N/A   Overcast